{"data":{"norad_id":53012,"epoch":"2026-05-25T03:44:54.840192Z","epoch_age_seconds":55378,"freshness":"FRESH","line1":"1 53012U 22076AC  26145.15619028  .00000692  00000+0  61549-4 0  9993","line2":"2 53012  53.2136 110.8485 0001395  73.9345 286.1800 15.08837235214395","mean_motion":15.08837235,"eccentricity":0.0001395,"inclination_deg":53.2136,"raan_deg":110.8485,"arg_perigee_deg":73.9345,"mean_anomaly_deg":286.18,"bstar":6.1549e-5,"rev_number":21439,"period_min":95.437729570612,"perigee_km":538.78679498261,"apogee_km":540.7168859691,"semimajor_km":6917.8888404759,"source":"CELESTRAK","updated_at":"2026-05-25T13:38:17.279122Z"}}